Location: Moru
(49.3044°N, 2.6821°E)
Time: 00:23:22
(UTC+00:00)

Daily predictions for brighter satellites

Satellite Brightness Start Highest point End
(mag) Time Altitude Azimuth Time Altitude Azimuth Time Altitude Azimuth
Cosmos 1980 Rocket 4.2 01:30:02 10° NNW 01:41:01 - ESE 01:32:42 22° N
SL-16 R/B 4.2 01:51:00 25° NNW 01:51:00 25° NNW 01:53:20 10° NNW
Resurs 1-4 Rocket 3.9 02:01:03 10° N 02:03:14 25° N 02:03:14 25° N
IDEFIX/ARIANE 42P 4.1 02:02:52 10° NNE 02:05:39 32° NNE 02:05:39 32° NNE
Cosmos 1833 Rocket 3.7 02:13:00 42° ENE 02:13:00 42° ENE 02:16:58 10° NE
CZ-2D R/B 3.8 02:16:33 10° N 02:18:59 26° N 02:18:59 26° N
CENTAUR R/B 4.0 02:27:14 23° SE 02:28:38 25° ESE 02:33:58 10° ENE
Lacrosse 4 Rocket 3.8 02:30:46 20° NNE 02:32:01 23° NE 02:35:32 10° E
Cosmos 2082 Rocket 3.2 02:38:49 38° ESE 02:39:20 39° ESE 02:44:31 10° NE
ADEOS II 3.3 02:39:22 10° N 02:42:28 34° N 02:42:28 34° N
Cosmos 1934 Rocket 4.4 02:48:44 51° NNW 02:48:44 51° NNW 02:53:43 10° N
Cosmos 1624 Rocket 4.3 02:50:31 65° NE 02:50:31 65° NE 02:55:08 10° NNE
CZ-2C R/B 3.8 02:45:21 10° NNE 02:49:51 34° E 02:51:08 29° SE
USA 306 4.3 03:00:25 36° NE 03:00:25 36° NE 03:03:00 10° ENE
BREEZE-M DEB (TANK) 4.4 03:04:01 19° ESE 03:04:01 19° ESE 03:05:40 10° ESE
COSMOS 2406 3.2 03:01:52 71° SSE 03:02:13 73° ESE 03:07:55 10° NNE
NOSS 3-2 (A) 4.2 03:01:33 34° SSE 03:03:01 40° ESE 03:08:48 10° NE
Cosmos 1151 Rocket 4.4 03:06:29 31° N 03:06:29 31° N 03:08:46 10° N
Cosmos 1371 Rocket 4.1 03:06:18 65° NNW 03:06:18 65° NNW 03:10:53 10° NNE
Cosmos 1605 Rocket 3.9 03:06:05 67° WNW 03:06:05 67° WNW 03:11:59 10° N
ATLAS CENTAUR R/B 2.1 03:08:06 61° NNE 03:08:06 61° NNE 03:12:12 10° NE
Cosmos 1328 Rocket 4.0 03:12:11 59° NNE 03:12:11 59° NNE 03:15:50 10° NNE
MSX 4.3 03:05:59 10° N 03:10:47 45° NW 03:10:47 45° NW
Cosmos 2322 Rocket 3.9 03:07:58 10° NNW 03:13:01 31° NE 03:18:01 10° ESE
Meteor 1-11 Rocket 3.7 03:10:47 10° NNW 03:16:47 75° W 03:18:13 53° SSW
Cosmos 1980 Rocket 3.8 03:13:44 10° NNW 03:23:06 20° S 03:24:48 10° SSE
COSMOS 2455 4.5 03:15:10 10° NNW 03:20:32 32° NE 03:25:53 10° E
USA 308 3.4 03:25:30 51° N 03:25:30 51° N 03:29:08 10° ENE
Cosmos 1850 Rocket 4.2 03:19:49 10° NNW 03:25:11 75° ENE 03:30:32 10° SSE
PAYLOAD A 4.1 03:21:25 10° NNE 03:26:16 69° ESE 03:28:15 36° S
ATLAS 5 CENTAUR R/B 4.2 03:23:23 10° NNW 03:26:25 17° NNE 03:29:55 10° NE
Cosmos 44 Rocket 3.0 03:26:24 86° W 03:26:28 86° NW 03:31:12 10° NE
SL-19 R/B 4.4 03:21:03 10° NNE 03:27:16 81° ESE 03:30:17 31° S
Cosmos 375 4.4 03:27:35 78° NNE 03:27:35 78° NNE 03:32:00 10° NE
Cosmos 1378 4.5 03:30:12 25° SE 03:31:42 37° E 03:35:05 10° NNE
CBERS-1 3.9 03:27:45 10° NNE 03:32:53 78° WNW 03:33:56 57° SW
Cosmos 2056 Rocket 3.8 03:35:21 47° WNW 03:35:21 47° WNW 03:40:13 10° NNE
Cosmos 2173 Rocket 3.9 03:33:19 17° S 03:38:10 83° E 03:44:17 10° N
Cosmos 1420 Rocket 4.1 03:38:26 51° WNW 03:38:43 51° WNW 03:43:49 10° NNE
Cosmos 1346 Rocket 4.0 03:40:21 30° NNW 03:40:21 30° NNW 03:42:43 10° N
Cosmos 1515 Rocket 3.6 03:37:57 44° S 03:39:20 81° E 03:43:49 10° NNE
GP-B 4.2 03:36:19 10° SSE 03:40:31 45° E 03:44:46 10° N
IRS-1D 4.0 03:37:57 10° N 03:42:55 42° WNW 03:43:03 41° WNW
ALOS 2.2 03:38:21 10° N 03:43:00 66° WNW 03:43:37 58° WSW
Cosmos 1461 3.1 03:42:22 53° S 03:43:04 64° SE 03:47:14 10° NE
Cosmos 2278 3.5 03:37:50 10° NNW 03:43:30 74° WSW 03:49:07 10° SSE
SL-16 R/B 2.7 03:38:21 10° NNW 03:44:00 62° ENE 03:49:37 10° SE
Cosmos 1470 Rocket 4.2 03:40:34 10° NNW 03:43:30 38° NW 03:43:30 38° NW
Resurs 1-4 Rocket 4.2 03:42:53 10° NNW 03:44:18 12° NW 03:44:18 12° NW
USA 305 3.4 03:44:58 42° NNW 03:45:29 45° N 03:49:27 10° ENE
IDEFIX/ARIANE 42P 4.2 03:43:27 10° NNW 03:46:27 19° NW 03:46:27 19° NW
FENGYUN 3A 3.8 03:44:56 10° N 03:50:10 53° WNW 03:51:35 42° WSW
NOSS 3-3 (A) 4.5 03:43:11 10° NW 03:50:39 82° SW 03:59:11 10° SE
NOSS 3-3 (C) 4.5 03:43:17 10° NW 03:50:45 82° SW 03:59:18 10° SE
METEOR-M 4.1 03:47:03 10° NNE 03:52:27 87° ESE 03:56:57 15° SSW
IRS-P3 4.2 03:49:45 10° NNE 03:55:07 78° ESE 04:00:27 10° SSW
Cosmos 1833 Rocket 3.6 03:54:43 29° WNW 03:55:40 31° NW 04:00:42 10° NNE
Cosmos 1741 Rocket 3.9 03:51:41 10° NNW 03:56:53 66° WSW 04:02:02 10° S
CZ-2D R/B 4.3 03:59:46 10° NW 04:00:17 10° NW 04:00:17 10° NW
Cosmos 2228 Rocket 4.3 03:58:40 10° SSE 04:02:52 43° E 04:07:04 10° NNE
Cosmos 2219 Rocket 4.3 03:59:33 10° NNW 04:04:15 26° NE 04:08:54 10° E
Cosmos 1331 Rocket 4.2 04:00:13 12° SSW 04:04:55 71° ESE 04:10:05 10° NNE
YAOGAN 6 3.1 04:02:03 10° NNE 04:05:39 60° E 04:09:12 10° S
Cosmos 1484 Rocket 2.8 04:06:51 10° NNE 04:10:51 83° ESE 04:14:48 10° SSW
Lacrosse 4 Rocket 1.4 04:07:07 13° NW 04:11:01 66° WSW 04:15:24 10° SSE
Lacrosse 5 rocket 4.3 04:09:50 10° SSE 04:12:06 14° ESE 04:14:22 10° E
ARIANE 5 R/B 2.4 04:07:45 10° NNE 04:12:47 79° WNW 04:17:46 10° SSW
Helios 1B rocket 2.5 04:09:29 10° N 04:13:28 54° WNW 04:15:11 30° SW
Meteor 1-27 Rocket 4.1 04:10:33 26° SW 04:13:33 46° WNW 04:19:15 10° N
CZ-2C R/B 2.6 04:09:39 10° S 04:14:49 58° W 04:20:10 10° NNW
Meteor 1-29 3.6 04:13:09 10° NNE 04:16:25 52° ESE 04:19:39 10° S
ERS-1 4.5 04:12:09 10° NNE 04:17:22 77° WNW 04:22:34 10° SSW
CENTAUR R/B 2.5 04:14:25 23° SW 04:18:24 77° NW 04:25:44 10° NE
CZ-2C R/B 3.8 04:13:00 10° NNE 04:18:42 62° E 04:24:06 10° S
Cosmos 2100 Rocket 4.2 04:15:24 15° SW 04:20:15 49° WNW 04:26:16 10° N
Cosmos 2333 Rocket 3.5 04:15:25 10° NNW 04:20:49 41° NE 04:26:09 10° ESE
Cosmos 1110 Rocket 3.9 04:16:35 13° SSW 04:21:14 80° WNW 04:26:27 10° NNE
CZ-4C R/B 3.8 04:17:36 10° SSE 04:21:52 74° ENE 04:26:14 10° N
Cosmos 2016 Rocket 4.0 04:15:35 10° SSW 04:21:57 75° W 04:28:22 10° N
ADEOS II 4.1 04:21:49 10° NW 04:23:05 11° NW 04:23:23 11° NW
Cosmos 2082 Rocket 2.7 04:20:41 25° WSW 04:23:24 41° NW 04:28:44 10° NNE
COSMO-SKYMED 1 3.9 04:20:18 10° SE 04:24:24 43° ENE 04:28:32 10° N
SL-08 R/B 4.4 04:18:27 10° S 04:24:32 82° W 04:30:46 10° N
Okean 1 3.6 04:23:13 24° SW 04:25:14 44° WNW 04:29:08 10° N
Cosmos 1869 Rocket 3.5 04:23:10 10° NNW 04:27:35 67° W 04:31:56 10° S
Cosmos 1452 Rocket 3.7 04:24:11 20° SW 04:27:38 51° WNW 04:32:49 10° NNE
USA 276 3.8 04:26:13 16° SSW 04:27:52 25° SSE 04:30:26 10° E
Cosmos 2360 Rocket 2.6 04:22:23 10° NNW 04:28:00 64° ENE 04:33:34 10° SE
CZ-2C R/B 3.0 04:23:34 10° N 04:28:04 35° WNW 04:30:30 22° WSW
Meteor 1-18 Rocket 4.2 04:23:26 10° S 04:29:07 89° WNW 04:34:45 10° NNE
Envisat 3.0 04:24:06 10° NNE 04:29:13 90° WSW 04:34:18 10° SSW
USA 307 3.6 04:27:02 21° WNW 04:29:24 42° N 04:33:21 10° ENE
ERBS 4.2 04:28:31 13° NNW 04:29:55 17° N 04:31:59 10° NE
Cosmos 968 Rocket 3.4 04:24:48 10° NNW 04:30:01 90° NE 04:35:08 10° SSE
Orbus 7S? 4.4 04:33:42 22° W 04:35:50 48° NNW 04:42:44 10° ENE
MINOTAUR 4 R/B 4.5 04:32:46 10° SSE 04:36:14 63° ENE 04:39:43 10° N
Cosmos 489 Rocket 4.4 04:30:17 10° NNW 04:36:28 65° WSW 04:42:36 10° S
USA 306 3.6 04:35:54 17° WNW 04:38:43 42° N 04:42:39 10° ENE
H-2A R/B 2.7 04:36:31 10° NNE 04:40:12 82° ESE 04:43:53 10° SSW
SL-24 R/B - RUBIN 2 3.6 04:38:53 17° SW 04:42:09 62° NW 04:46:30 10° NE
Cosmos 2061 Rocket 4.0 04:36:12 10° SSW 04:42:20 63° WNW 04:48:31 10° N
PSLV R/B 3.8 04:41:04 10° NNE 04:45:25 75° ESE 04:49:41 10° S
Cosmos 1733 Rocket 3.4 04:42:09 10° N 04:46:35 71° ENE 04:50:58 10° SSE
ATLAS CENTAUR R/B 3.3 04:44:03 14° WNW 04:46:48 22° NNW 04:50:33 10° NNE
COSMOS 2406 4.4 04:43:57 16° W 04:47:06 26° NW 04:51:50 10° NNE
Cosmos 2344 4.4 04:39:53 10° NW 04:48:26 76° NE 05:00:19 10° SE
CZ-2D R/B 3.8 04:45:49 10° N 04:49:32 39° WNW 04:53:18 10° SW
X-37B 2.8 04:49:24 11° SW 04:49:40 11° SSW 04:50:27 10° SSW
Meteor 2-4 Rocket 3.7 04:45:51 10° SSW 04:51:34 70° WNW 04:57:08 10° N
COSMOS 2428 4.3 04:46:49 10° NNW 04:52:06 35° NE 04:57:19 10° ESE
NOSS 3-2 (A) 3.7 04:48:58 14° WSW 04:53:41 51° NW 05:00:12 10° NE
NOSS 3-2 (C) 3.3 04:48:49 10° SW 04:54:22 77° NW 05:00:57 10° NE
Cosmos 1975 3.3 04:52:22 10° NNW 04:56:02 35° W 04:59:38 10° SSW
Cosmos 2322 Rocket 2.3 04:51:50 10° NW 04:57:25 57° WSW 05:02:55 10° S
Cosmos 1437 Rocket 4.5 04:54:49 10° N 04:58:23 36° ENE 05:01:59 10° SE
SL-08 R/B 4.0 04:54:35 10° SSW 04:58:46 31° W 05:03:02 10° NNW
Cosmos 2237 4.4 04:53:42 10° NW 04:59:12 52° WSW 05:04:42 10° S
Cosmos 1242 Rocket 2.7 04:56:41 10° NNW 04:59:57 41° W 05:03:09 10° SSW
CZ-2C R/B 2.7 04:56:32 10° NNE 05:00:22 79° WNW 05:04:13 10° SSW
Cosmos 2233 Rocket 4.1 04:57:03 10° SSW 05:03:18 61° WNW 05:09:34 10° N
USA 308 3.6 05:01:01 10° WNW 05:04:56 44° N 05:08:53 10° E
COSMOS 2455 2.8 05:00:58 10° NW 05:06:59 71° WSW 05:12:57 10° SSE
Cosmos 1805 3.2 05:05:15 10° NNW 05:09:07 68° W 05:12:57 10° S
USA 238 DEB 3.7 05:03:46 10° SW 05:10:13 71° NW 05:17:10 10° NE
USA 238 3.7 05:03:52 10° SW 05:10:19 72° NW 05:17:16 10° NE
Tsikada Rocket 4.4 05:04:37 10° NNW 05:10:24 40° W 05:16:06 10° SSW
ATLAS 5 CENTAUR R/B 3.4 05:07:27 10° NNW 05:12:11 40° NE 05:17:52 10° ESE
SKYMED 2 3.5 05:08:08 10° S 05:12:27 66° WSW 05:16:47 10° NNW
CZ-4B R/B 3.7 05:09:15 10° NNE 05:14:33 86° ESE 05:19:50 10° SSW
Aureole 1 Rocket 3.7 05:13:02 10° NNW 05:16:46 45° ENE 05:19:51 10° SE
GP-B 4.3 05:14:39 10° SW 05:18:02 21° W 05:21:27 10° NNW
Cosmos 1464 Rocket 4.5 05:12:39 10° S 05:18:46 68° E 05:24:53 10° NNE
ALOS 4.2 05:18:17 10° NW 05:19:29 11° NW 05:20:40 10° WNW
Cosmos 1733 3.4 05:16:28 10° NNW 05:20:03 44° W 05:23:37 10° SSW
SL-27 R/B 4.3 05:18:38 10° S 05:21:53 37° ESE 05:25:09 10° NE
Cosmos 1461 4.2 05:18:58 10° W 05:22:22 24° NNW 05:25:54 10° NNE
USA 290 2.7 05:21:34 10° NW 05:24:36 39° WSW 05:27:37 10° S
USA 305 3.5 05:21:16 10° WNW 05:25:17 50° NNE 05:29:18 10° E
Cosmos 2322 4.1 05:21:33 10° NNW 05:27:15 73° ENE 05:32:55 10° SE
Meteor 2-14 Rocket 4.5 05:21:54 10° N 05:28:01 85° W 05:34:07 10° S
